Find BSAT-2a

NORAD ID: 26720 Int'l Des: 2001-011 Owner: BSAT Country: J operational
HEOCIRCULAR

当前视图

正在加载3D地球...

关于 BSAT-2a

正在加载描述...

即将过境

Passes for default location (London). Set your location on the main map for personalized predictions.

高度历史

Loading altitude history...

两行轨道根数

1 26720U 01011B 26145.94077201 -.00000158 00000-0 00000-0 0 9993
2 26720 10.6872 47.6953 0002383 218.9624 318.2595 0.99180912 91759
Epoch: May 25, 2026 • Age: 24 hours

当前状态

高度 36087.0 km
速度 3.06 km/s
星下点 0.45°N, 1.21°W
发射日期 Mar 8, 2001
运行时间 25.2 years
类型 other

技术详情

分类 Payload
质量 650.00 kg
干质量 490.00 kg
总质量 1317.00 kg
长度 3.80 m
直径 2.50 m
跨度 16.10 m
形状 Box + 2 Pan
制造商 OSCD
平台类型 OSC Star 1
阶段状态 In Orbit
所有者/国家 BSAT/J

Most Searched